Le nostre stazioni meteo in Italia

Pubblicità
Il mio iltempo24.it
Frosinone, Italia (16244): Temperatura & dewpoint: 16.10.2018 08:00:00 - 22.10.2018 08:00:00 (CEST)Frosinone, Italia (16244): velocità del vento: 16.10.2018 08:00:00 - 22.10.2018 08:00:00 (CEST)Frosinone, Italia (16244): direzione del vento: 16.10.2018 08:00:00 - 22.10.2018 08:00:00 (CEST)Frosinone, Italia (16244): reduced air pressure: 16.10.2018 08:00:00 - 22.10.2018 08:00:00 (CEST)Frosinone, Italia (16244): visibility: 16.10.2018 08:00:00 - 22.10.2018 08:00:00 (CEST)
Data & Tempo tt [°C] td [°C] ff [km/h] ff [kn] dd ppp [hPa] vv [km]
22.10.2018 08:00:00 10,8 7,1 4 2 N 1012,2 13
22.10.2018 07:00:00 10,0 8,0 4 2 NNO - 10
22.10.2018 06:00:00 - - - - - - -
22.10.2018 05:00:00 - - - - - - -
22.10.2018 04:00:00 - - - - - - -
22.10.2018 03:00:00 - - - - - - -
22.10.2018 02:00:00 - - - - - - -
22.10.2018 01:00:00 - - - - - - -
22.10.2018 00:00:00 - - - - - - -
21.10.2018 23:00:00 - - - - - - -
21.10.2018 22:00:00 - - - - - - -
21.10.2018 21:00:00 - - - - - - -
21.10.2018 20:00:00 - - - - - - -
21.10.2018 19:00:00 - - - - - - -
21.10.2018 18:00:00 - - - - - - -
21.10.2018 17:00:00 - - - - - - -
21.10.2018 16:00:00 - - - - - - -
21.10.2018 15:00:00 - - - - - - -
21.10.2018 14:00:00 - - - - - - -
21.10.2018 13:00:00 - - - - - - -
21.10.2018 12:00:00 - - - - - - -
21.10.2018 11:00:00 - - - - - - -
21.10.2018 10:00:00 - - - - - - -
21.10.2018 09:00:00 - - - - - - -
21.10.2018 08:00:00 - - - - - - -
21.10.2018 07:00:00 - - - - - - -
21.10.2018 06:00:00 - - - - - - -
21.10.2018 05:00:00 - - - - - - -
21.10.2018 04:00:00 - - - - - - -
21.10.2018 03:00:00 - - - - - - -
21.10.2018 02:00:00 - - - - - - -
21.10.2018 01:00:00 - - - - - - -
21.10.2018 00:00:00 - - - - - - -
20.10.2018 23:00:00 - - - - - - -
20.10.2018 22:00:00 - - - - - - -
20.10.2018 21:00:00 - - - - - - -
20.10.2018 20:00:00 - - - - - - -
20.10.2018 19:00:00 - - - - - - -
20.10.2018 18:00:00 - - - - - - -
20.10.2018 17:00:00 - - - - - - -
20.10.2018 16:00:00 - - - - - - -
20.10.2018 15:00:00 - - - - - - -
20.10.2018 14:00:00 - - - - - - -
20.10.2018 13:00:00 - - - - - - -
20.10.2018 12:00:00 - - - - - - -
20.10.2018 11:00:00 - - - - - - -
20.10.2018 10:00:00 - - - - - - -
20.10.2018 09:00:00 - - - - - - -
20.10.2018 08:00:00 - - - - - - -
20.10.2018 07:00:00 - - - - - - -
20.10.2018 06:00:00 - - - - - - -
20.10.2018 05:00:00 - - - - - - -
20.10.2018 04:00:00 - - - - - - -
20.10.2018 03:00:00 - - - - - - -
20.10.2018 02:00:00 - - - - - - -
20.10.2018 01:00:00 - - - - - - -
20.10.2018 00:00:00 - - - - - - -
19.10.2018 23:00:00 - - - - - - -
19.10.2018 22:00:00 - - - - - - -
19.10.2018 21:00:00 - - - - - - -
19.10.2018 20:00:00 19,4 13,8 0 0 N 1015,9 13
19.10.2018 19:00:00 21,0 13,0 4 2 N - 10
19.10.2018 18:00:00 23,0 14,0 8 4 OSO - 10
19.10.2018 17:00:00 25,8 11,2 5 3 NE 1014,2 13
19.10.2018 16:00:00 25,0 11,0 5 3 S - 10
19.10.2018 15:00:00 25,0 12,0 9 5 SSO - 10
19.10.2018 14:00:00 24,8 13,7 4 2 SSE 1015,0 13
19.10.2018 13:00:00 23,0 13,0 4 2 SSE - 10
19.10.2018 12:00:00 22,0 13,0 4 2 S - 10
19.10.2018 11:00:00 19,6 13,1 0 0 N 1015,6 10
19.10.2018 10:00:00 17,0 13,0 4 2 S - 10
19.10.2018 09:00:00 13,0 12,0 0 0 N - 10
19.10.2018 08:00:00 11,8 10,7 0 0 N 1015,0 8
19.10.2018 07:00:00 12,0 11,0 0 0 N - 8
19.10.2018 06:00:00 - - - - - - -
19.10.2018 05:00:00 - - - - - - -
19.10.2018 04:00:00 - - - - - - -
19.10.2018 03:00:00 - - - - - - -
19.10.2018 02:00:00 - - - - - - -
19.10.2018 01:00:00 - - - - - - -
19.10.2018 00:00:00 - - - - - - -
18.10.2018 23:00:00 - - - - - - -
18.10.2018 22:00:00 - - - - - - -
18.10.2018 21:00:00 - - - - - - -
18.10.2018 20:00:00 21,0 11,9 11 6 NE 1012,0 10
18.10.2018 19:00:00 22,0 12,0 8 4 NE - 10
18.10.2018 18:00:00 23,0 12,0 9 5 SSE - 10
18.10.2018 17:00:00 24,4 12,1 15 8 SSE 1011,2 13
18.10.2018 16:00:00 25,0 12,0 11 6 ESE - 10
18.10.2018 15:00:00 25,0 12,0 13 7 SE - 10
18.10.2018 14:00:00 24,8 13,1 18 10 SE 1011,7 13
18.10.2018 13:00:00 24,0 15,0 13 7 ESE - 10
18.10.2018 12:00:00 23,0 15,0 4 2 S - 10
18.10.2018 11:00:00 21,6 14,5 8 4 OSO 1013,2 13
18.10.2018 10:00:00 19,0 15,0 4 2 SO - 10
18.10.2018 09:00:00 16,0 13,0 4 2 NNE - 10
18.10.2018 08:00:00 12,2 11,4 0 0 N 1013,2 6
18.10.2018 07:00:00 13,0 13,0 5 3 ENE - 4,0
18.10.2018 06:00:00 - - - - - - -
18.10.2018 05:00:00 - - - - - - -
18.10.2018 04:00:00 - - - - - - -
18.10.2018 03:00:00 - - - - - - -
18.10.2018 02:00:00 - - - - - - -
18.10.2018 01:00:00 - - - - - - -
18.10.2018 00:00:00 - - - - - - -
17.10.2018 23:00:00 - - - - - - -
17.10.2018 22:00:00 - - - - - - -
17.10.2018 21:00:00 - - - - - - -
17.10.2018 20:00:00 19,4 15,5 5 3 NO 1014,1 11
17.10.2018 19:00:00 20,0 15,0 4 2 O - 10
17.10.2018 18:00:00 22,0 15,0 4 2 OSO - 10
17.10.2018 17:00:00 24,2 14,9 9 5 E 1013,7 13
17.10.2018 16:00:00 25,0 16,0 5 3 S - 10
17.10.2018 15:00:00 24,0 15,0 5 3 ESE - 10
17.10.2018 14:00:00 23,0 14,8 4 2 NE 1015,0 13
17.10.2018 13:00:00 22,0 15,0 8 4 NE - 10
17.10.2018 12:00:00 22,0 15,0 8 4 E - 10
17.10.2018 11:00:00 20,0 14,4 5 3 ENE 1016,6 13
17.10.2018 10:00:00 17,0 14,0 4 2 E - 10
17.10.2018 09:00:00 15,0 14,0 4 2 S - 10
17.10.2018 08:00:00 15,2 13,7 4 2 N 1016,9 8
17.10.2018 07:00:00 15,0 14,0 4 2 NE - 8
17.10.2018 06:00:00 - - - - - - -
17.10.2018 05:00:00 - - - - - - -
17.10.2018 04:00:00 - - - - - - -
17.10.2018 03:00:00 - - - - - - -
17.10.2018 02:00:00 - - - - - - -
17.10.2018 01:00:00 - - - - - - -
17.10.2018 00:00:00 - - - - - - -
16.10.2018 23:00:00 - - - - - - -
16.10.2018 22:00:00 - - - - - - -
16.10.2018 21:00:00 - - - - - - -
16.10.2018 20:00:00 19,4 15,5 4 2 SSE 1017,2 13
16.10.2018 19:00:00 20,0 15,0 4 2 NNE - 10
16.10.2018 18:00:00 21,0 15,0 5 3 E - 10
16.10.2018 17:00:00 22,0 15,6 8 4 S 1016,6 13
16.10.2018 16:00:00 22,0 16,0 11 6 S - 10
16.10.2018 15:00:00 23,0 15,0 13 7 SE - 10
16.10.2018 14:00:00 24,0 15,8 16 9 E 1016,4 13
16.10.2018 13:00:00 24,0 16,0 13 7 E - 10
16.10.2018 12:00:00 21,0 15,0 5 3 NE - 10
16.10.2018 11:00:00 19,8 14,4 5 3 S 1016,8 13
16.10.2018 10:00:00 16,0 14,0 4 2 E - 10
16.10.2018 09:00:00 15,0 13,0 4 2 N - 10
16.10.2018 08:00:00 15,0 13,0 4 2 E 1016,9 8

tt = Temperatura
td = dewpoint
ff = velocità del vento
dd = direzione del vento
ppp = reduced air pressure
vv = visibility

Stazioni seguenti

WeatherPro
AMSI
MeteoEarth